Other Public Products
Issued by NWS Charleston, SC

Current Version | Previous Version | Graphics & Text | Print | Product List | Glossary On
Versions: 1 2 3 4 5 6 7 8 9 10 11 12 13 14 15 16 17 18 19 20 21 22 23 24 25 26 27 28 29 30 31 32 33 34 35 36 37 38 39 40 41 42 43 44 45 46 47 48 49 50
000 FPUS82 KCHS 171912 OPUCHS TEST...KCHS/KSAV Gateway Observations...TEST National Weather Service Charleston SC 200 PM EST SAT FEB 17 2018 NOTE: "fair" indicates few or no clouds below 12,000 feet with no significant weather and/or obstructions to visibility. SCZ050-WAZ558-NCZ071-TXZ119-213-PAZ071-DCZ001-FLZ074-172-MI076- NYZ176-178-MAZ016-IL014-TNZ027-NJZ106-GAZ044-MD014-172000- ...Gateway Observations for Charleston International... CITY SKY/WX TMP DP RH WIND PRES REMARKS Chas Airport CLOUDY 64 57 78 E7 30.13F Seattle CLOUDY 48 46 93 SW29G48 29.62R Charlotte LGT RAIN 50 46 86 N5 30.12F Dallas DFW PTSUNNY 59 47 64 CALM 30.11S Dallas Love CLOUDY 55 47 74 VRB3 30.11F Philladelphia CLOUDY 41 23 48 SE10 30.28F Wash National FLURRIES 41 26 55 SE8 30.26R Baltimore CLOUDY 39 26 59 SE8 30.26R WCI 33 Miami FAIR 83 65 54 E9 30.16F Detroit CLOUDY 32 23 69 S8 30.04F WCI 25 Newark CLOUDY 36 23 59 SE9 30.32F WCI 29 Laguardia PTSUNNY 38 20 48 SE14 30.32F WCI 30 J F K PTSUNNY 36 22 56 SE13 30.34F WCI 27 Boston Logan PTSUNNY 32 16 51 E13 30.33F WCI 22 Ft. Lauderdale FAIR 79 68 69 E14 30.16F Chicago O`Hare CLOUDY 34 24 67 SW13 29.96F WCI 25 Chicago Midway CLOUDY 35 26 69 SW12 29.97F WCI 27 Houston Bush CLOUDY 68 62 81 N15 30.11F Houston Hobby LGT RAIN 73 70 90 W12 30.08F Nashville LGT RAIN 43 41 93 S3 30.06R VSB 1 Atlanta PTSUNNY 73 61 65 SW10 30.08F $$ GAZ044-118-TXZ119-213-NCZ071-DCZ001-MDZ014-506-PAZ021-071-NJZ106- NYZ176-178-MAZ106-OHZ011-021-055-MIZ076-KYZ091-ILZ014-INZ047- MNZ060-ONZ431-172000- ...Gateway Observations for Savannah International... CITY SKY/WX TMP DP RH WIND PRES REMARKS Savannah Arpt FAIR 79 60 52 SW9 30.11F Atlanta PTSUNNY 73 61 65 SW10 30.08F Charlotte LGT RAIN 50 46 86 N5 30.12F Dallas DFW PTSUNNY 59 47 64 CALM 30.11S Houston Bush CLOUDY 68 62 81 N15 30.11F Wash National FLURRIES 41 26 55 SE8 30.26R Wash Dulles LGTSLEET 39 27 62 S8 30.25R WCI 33 Baltimore CLOUDY 39 26 59 SE8 30.26R WCI 33 Philadelphia CLOUDY 41 23 48 SE10 30.28F Newark CLOUDY 36 23 59 SE9 30.32F WCI 29 Laguardia PTSUNNY 38 20 48 SE14 30.32F WCI 30 J F K PTSUNNY 36 22 56 SE13 30.34F WCI 27 Boston PTSUNNY 32 16 51 E13 30.33F WCI 22 Pittsburg SNOW 31 29 92 SE7 30.04F VSB 1/2 WCI 24 Akron CLOUDY 33 23 66 S10 30.03F WCI 25 Cleveland CLOUDY 33 22 63 S6 30.07F WCI 28 Cincinnati SNOW 33 33 100 E3 30.01F VSB 1/2 Columbus LGT SNOW 33 30 89 S3 30.05F VSB 1 Detroit CLOUDY 32 23 69 S8 30.04F WCI 25 Chicago O`Hare CLOUDY 34 24 67 SW13 29.96F WCI 25 Minneapolis FAIR 33 25 72 W8 29.88F WCI 26 Indianapolis CLOUDY 34 32 92 S14 30.00F WCI 25 Toronto Canada CLOUDY 30 18 59 S12 30.05F WCI 21 $$

USA.gov is the U.S. government's official web portal to all federal, state and local government web resources and services.